Location: El Azufral
(10.3513°N, 67.1528°W)
Time: 09:37:26
(UTC+00:00)

Meteor PRIRODA - Pass Details

Date: 13 June 2024
Orbit: 438 x 449 km, 97.5° (Epoch: 19 July)

Event Time Altitude Azimuth Distance (km) Brightness Sun altitude
Exits shadow 23:37:54 11° 156° (SSE) 1,510 5.6 -11.4°
Maximum altitude 23:41:03 53° 78° (ENE) 549 3.5 -12.0°
Drops below altitude 10° 23:44:18 10° 0° (N) 1,557 6.5 -12.8°
Sets 23:46:20 0° 356° (N) 2,423 7.6 -13.2°
